Home > Time Zones > World Clock > Weather > Japan > Naha > Past weeks

Flag for Japan Weather past 2 weeks in Naha, Okinawa, Japan

Now
84 °F

Rain showers. Broken clouds.


Feels Like: 96 °F
Forecast: 82 / 87 °F
Wind: 10 mph from Southwest

Location: Naha Airport

Current Time: Aug 28, 2015 at 7:14:03 PM

Latest Report: Aug 28, 2015 at 6:30 PM


Visibility: N/A

Pressure: 29.77 "Hg

Humidity: 84%

Dew point: 79 °F

Location of NahaLocation

Historic Weather in Naha — Graph

°F

Naha temperature yesterday

Maximum temperature yesterday: 86 °F (at 10:30 AM)
Minimum temperature yesterday: 81 °F (at 12:00 AM)
Average temperature yesterday: 83 °F

Past Weeks' High & Low Weather Summary

 TemperatureHumidityPressure
High90 °F (Aug 14, 2:30 PM)94% (Aug 15, 7:00 PM)29.86 "Hg (Aug 15, 7:00 PM)
Low77 °F (Aug 17, 12:00 PM)62% (Aug 27, 1:30 PM)29.18 "Hg (Aug 24, 11:47 AM)
Average84 °F80%29.70 "Hg
* Reported Aug 13 6:00 PM — Aug 28 6:00 PM, Naha, Weather by CustomWeather, © 2015

Note: Actual official high and low records may vary slightly from our data, if they occured in-between our weather recording intervals... More about our weather records

Advertising

Naha weather history for previous 24 hours

 ConditionsComfort  
Time TempWeatherWind HumidityBarometerVisibility
6:00 PM
Fri, Aug 28
84 °FRain showers. Broken clouds.8 mph79%29.77 "HgN/A
5:30 PM84 °FScattered showers. Broken clouds.7 mph79%29.77 "HgN/A
5:00 PM84 °FScattered showers. Broken clouds.8 mph79%29.77 "HgN/A
4:30 PM86 °FBroken clouds.6 mph79%29.77 "HgN/A
4:00 PM84 °FScattered showers. Partly sunny.6 mph79%29.77 "HgN/A
3:30 PM86 °FPartly sunny.6 mph75%29.77 "HgN/A
3:00 PM86 °FPartly sunny.7 mph75%29.77 "HgN/A
2:30 PM86 °FPartly sunny.7 mph75%29.77 "HgN/A
2:00 PM86 °FPartly sunny.7 mph75%29.77 "HgN/A
1:30 PM86 °FPartly sunny.9 mph75%29.77 "HgN/A
1:00 PM84 °FSprinkles. Broken clouds.8 mph79%29.80 "HgN/A
12:30 PM86 °FBroken clouds.7 mph79%29.80 "HgN/A
12:00 PM84 °FBroken clouds.8 mph79%29.80 "HgN/A
11:30 AM86 °FScattered showers. Partly sunny.8 mph75%29.80 "HgN/A
11:00 AM84 °FScattered showers. Partly sunny.7 mph84%29.83 "HgN/A
10:30 AM84 °FPartly sunny.7 mph79%29.80 "HgN/A
10:00 AM84 °FPartly sunny.8 mph84%29.80 "HgN/A
9:30 AM84 °FPartly sunny.7 mph84%29.80 "HgN/A
9:00 AM84 °FPartly sunny.7 mph84%29.83 "HgN/A
8:30 AM82 °FScattered showers. Partly sunny.5 mph84%29.80 "HgN/A
8:00 AM81 °FSprinkles. Broken clouds.5 mph89%29.80 "HgN/A
7:30 AM81 °FThunderstorms. Broken clouds.6 mph89%29.80 "HgN/A
7:00 AM81 °FRain showers. Broken clouds.7 mph89%29.80 "Hg4 mi
6:30 AM81 °FScattered showers. Broken clouds.6 mph89%29.80 "HgN/A
6:00 AM81 °FScattered showers. Passing clouds.5 mph84%29.80 "HgN/A
5:30 AM81 °FSprinkles. Partly cloudy.6 mph84%29.80 "HgN/A
5:00 AM81 °FRain showers. Partly cloudy.3 mph84%29.80 "HgN/A
4:30 AM81 °FScattered showers. Passing clouds.5 mph84%29.80 "HgN/A
4:00 AM81 °FPassing clouds.3 mph84%29.80 "HgN/A
3:30 AM81 °FPassing clouds.2 mph84%29.80 "HgN/A
3:00 AM81 °FPassing clouds.3 mph84%29.80 "HgN/A
2:30 AM81 °FPassing clouds.3 mph79%29.80 "HgN/A
2:00 AM81 °FPassing clouds.3 mph79%29.83 "HgN/A
1:30 AM81 °FPassing clouds.2 mph79%29.83 "HgN/A
1:00 AM81 °FPassing clouds.3 mph79%29.83 "HgN/A
12:30 AM81 °FPassing clouds.5 mph79%29.83 "HgN/A
12:00 AM81 °FPassing clouds.5 mph79%29.83 "HgN/A
11:30 PM
Thu, Aug 27
81 °FPassing clouds.5 mph79%29.83 "HgN/A
11:00 PM81 °FPassing clouds.5 mph79%29.86 "HgN/A
10:30 PM81 °FPassing clouds.6 mph79%29.86 "HgN/A
10:00 PM81 °FPassing clouds.6 mph79%29.86 "HgN/A
9:30 PM81 °FPassing clouds.6 mph79%29.83 "HgN/A
9:00 PM82 °FPassing clouds.6 mph74%29.83 "HgN/A
8:30 PM82 °FPassing clouds.6 mph74%29.83 "HgN/A
8:00 PM82 °FPassing clouds.6 mph74%29.83 "HgN/A
7:30 PM82 °FPassing clouds.8 mph70%29.80 "HgN/A
7:00 PM82 °FPassing clouds.8 mph70%29.80 "HgN/A
Weather by CustomWeather, © 2015

See weather overviewHow to use our weather pages